Погода в Карлстаде

Швеция     59°22′47″N   13°28′27″E
темп.,
°C
ветер,
м/с
пор.,
м/с
влажн.,
%
обл.,
%
осадки,
мм/ч
давл.,
гПа
погр.,
м
21 октября, чт
чт2123:00+9юз6138474 0.1 981989
02:00+9юз51283100 0.1 9801073
05:00+9юз5127999 0.1 9791159
08:00+9ююз4118377 0.1 977781
11:00+10юз388396 0.1 976929
14:00+11зсз3562100 0.2 9741174
17:00+8зсз5105473 0.0 9761104
20:00+6зсз513572 0.0 978822
22 октября, пт
пт2223:00+5зсз41352100 0.0 981683
02:00+4з413606 0.0 984525
05:00+2з3126582 0.0 985351
08:00+1з3116975 0.0 986329
11:00+5зсз3105519 0.0 987426
14:00+7зсз384893 0.0 988803
17:00+6зсз4125552 0.0 990605
20:00+5ссз31359100 0.0 995463
23 октября, сб
сб2323:00+2с278067 0.0 1000177
02:00+1ссз311726 0.0 1004417
05:000ссз25815 0.0 1009100
08:000сз24905 0.0 101281
11:00+6ссз411600 0.0 1015834
14:00+9ссз49500 0.0 10181380
17:00+5зсз226258 0.0 102018
20:00+3з11685 0.0 102210
24 октября, вс
вс2423:00+2ююв117198 0.0 102310
02:00+3ююв248595 0.0 102271
05:00+6ююз41082100 0.0 1021561
08:00+8ююз51186100 0.0 1020748
11:00+9ююз51186100 0.0 1020857
14:00+10ююз51285100 0.1 10191124
17:00+10юз51083100 0.2 1018987
20:00+9ююз4109098 0.5 1018612
25 октября, пн
пн2523:00+9ююз61290100 0.3 1017981
02:00+9ююз51085100 0.3 1017949
05:00+9ююз51084100 0.0 1015790
08:00+8ююз5118883 0.1 1014727
11:00+9ююз5975100 0.0 1014974
14:00+10ююз487689 0.1 1013935
17:00+9ююз4983100 0.0 1012597
20:00+9ююз41088100 0.0 1011687